Regional Weather Roundup
Issued by NWS Charleston, WV

Home | Current Version | Previous Version | Graphics & Text | Print | Product List | Glossary On
Versions: 1 2 3 4 5 6 7 8 9 10 11 12 13 14 15 16 17 18 19 20 21 22 23 24 25 26 27 28 29 30 31 32 33 34 35 36 37 38 39 40 41 42 43 44 45 46 47 48 49 50
428
ASUS41 KRLX 201410
RWRRLX
West Virginia Regional Weather Roundup
National Weather Service Charleston WV
900 AM EST MON FEB 20 2017

Note: "fair" indicates few or no clouds below 12,000 feet with no
significant weather and/or obstructions to visibility.

WVZ003-201500-
Northern Panhandle of West Virginia

CITY           SKY/WX    TMP DP  RH WIND       PRES   REMARKS
WHEELING       FOG       42  41  96 SW3       30.28R VSB<1/4
$$

WVZ009-201500-
Northwest West Virginia

CITY           SKY/WX    TMP DP  RH WIND       PRES   REMARKS
PARKERSBURG    FOG       38  37  97 CALM      30.32R VSB 1/16
$$

WVZ006-201500-
Western West Virginia

CITY           SKY/WX    TMP DP  RH WIND       PRES   REMARKS
HUNTINGTON     FOG       38  37  97 SE3       30.28R VSB 1/8
$$

WVZ015-201500-
West Central West Virginia

CITY           SKY/WX    TMP DP  RH WIND       PRES   REMARKS
CHARLESTON     FOG       39  38  96 CALM      30.29R VSB 1/4
$$

WVZ022-031-201500-
North Central West Virginia

CITY           SKY/WX    TMP DP  RH WIND       PRES   REMARKS
CLARKSBURG     MOSUNNY   49  44  83 CALM      30.29R
MORGANTOWN     PTSUNNY   50  43  77 CALM      30.30R
$$

WVZ025-035-042-045-201500-
Southern West Virginia

CITY           SKY/WX    TMP DP  RH WIND       PRES   REMARKS
BECKLEY        CLOUDY    44  44 100 S3        30.27R FOG
LOGAN          FOG       41  41 100 CALM      30.27R VSB<1/4
BLUEFIELD      CLOUDY    45  43  93 SW5       30.27R
LEWISBURG      FOG       37  37 100 CALM      30.28R VSB<1/4
$$

WVZ047-201500-
Northern Mountains of West Virginia

CITY           SKY/WX    TMP DP  RH WIND       PRES   REMARKS
ELKINS         SUNNY     39  35  86 CALM      30.30R
$$

WVZ052-201500-
Eastern Panhandle of West Virginia

CITY           SKY/WX    TMP DP  RH WIND       PRES   REMARKS
MARTINSBURG    SUNNY     51  41  68 E3        30.24R
PETERSBURG     SUNNY     40  38  93 CALM      30.28R FOG
$$




USA.gov is the U.S. government's official web portal to all federal, state and local government web resources and services.